Regional Weather Roundup
Issued by NWS

Home | Current Version | Previous Version | Graphics & Text | Print | Product List | Glossary On
Versions: 1 2 3 4 5 6 7 8 9 10 11 12 13 14 15 16 17 18 19 20 21 22 23 24 25 26 27 28 29 30 31 32 33 34 35 36 37 38 39 40 41 42 43 44 45 46 47 48 49 50
000
ASUS43 KTOP 250159
RWRKS

WEATHER ROUNDUP FOR KANSAS
NATIONAL WEATHER SERVICE GOODLAND KS
800 PM CST SAT JAN 24 2015

NOTE:  "FAIR" INDICATES FEW OR NO CLOUDS BELOW 12,000 FEET WITH NO
SIGNIFICANT WEATHER AND/OR OBSTRUCTIONS TO VISIBILITY.

KSZ001>006-013>018-027>032-041>047-250300-
NORTHWEST KANSAS

CITY           SKY/WX    TMP DP  RH WIND       PRES   REMARKS
GOODLAND       CLOUDY    47  29  49 NW20G29   29.96R
HAYS           CLOUDY    48  36  61 W12       29.85F
HILL CITY      CLOUDY    46  36  68 W12       29.86R
RUSSELL        CLOUDY    47  42  83 W13       29.82F
$$

KSZ061>065-074>080-084>089-250300-
SOUTHWEST KANSAS

CITY           SKY/WX    TMP DP  RH WIND       PRES   REMARKS
DODGE CITY     CLOUDY    51  25  36 NW9       29.93R
ELKHART          N/A    N/A N/A N/A MISG        N/A
GARDEN CITY    CLOUDY    47  26  44 NW9       29.94R
GREAT BEND     CLOUDY    52  34  50 NW13      29.87F
LIBERAL        CLOUDY    43  28  56 NW9       29.96S
$$

KSZ066>073-081>083-090>101-250300-
SOUTHEAST KANSAS

CITY           SKY/WX    TMP DP  RH WIND       PRES   REMARKS
CHANUTE        MOCLDY    51  31  46 SW12      29.81F
COFFEYVILLE    MOCLDY    50  30  46 S10       29.84F
HUTCHINSON     CLOUDY    56  28  34 NW15      29.84R
MEDICINE LODGE   N/A     55  25  31 W9        29.87S
NEWTON         CLOUDY    54  27  35 W14       29.84R
PARSONS        MOCLDY    53  31  42 SW8       29.83F
WICHITA INTL   CLOUDY    49  30  48 SW7       29.82F
WICHITA JABRA  CLOUDY    57  27  31 SW10      29.82S
WINFIELD       CLOUDY    50  29  44 SW10      29.85F
$$

KSZ007>012-019>026-033>040-048>060-102>105-250300-
NORTHEAST KANSAS

CITY           SKY/WX    TMP DP  RH WIND       PRES   REMARKS
CONCORDIA      CLOUDY    48  34  58 W8        29.76F
EMPORIA        CLOUDY    51  29  42 SW10      29.76F
LAWRENCE       CLOUDY    53  28  38 SW8       29.72F
MANHATTAN      LGT RAIN  54  38  54 W9        29.76S
OLATHE IND     CLOUDY    51  29  42 SW12      29.72F
OLATHE EXE     CLOUDY    53  28  38 SW9       29.71F
SALINA         LGT RAIN  49  42  77 W13       29.82R
TOPEKA BILLARD CLOUDY    55  29  36 W15G24    29.74R
TOPEKA FORBES  CLOUDY    57  28  33 W18G31    29.75R
$$


USA.gov is the U.S. government's official web portal to all federal, state and local government web resources and services.